Date,TemperatureHighF,TemperatureAvgF,TemperatureLowF,DewpointHighF,DewpointAvgF,DewpointLowF,HumidityHigh,HumidityAvg,HumidityLow,PressureMaxIn,PressureMinIn,WindSpeedMaxMPH,WindSpeedAvgMPH,GustSpeedMaxMPH,PrecipitationSumIn
2012-8-25,92.3,81.8,70.8,53.8,50.8,47.2,52,35,23,30.12,29.87,2,0,6,0.00
2012-8-26,96.5,84.3,60.4,65.2,59.2,51.7,79,45,27,30.19,30.06,6,2,8,0.00
2012-8-27,83.8,76.2,69.8,72.0,67.2,60.5,90,74,58,30.12,30.04,7,2,8,0.54
2012-8-28,95.5,79.1,59.7,66.4,58.0,53.6,90,53,26,30.15,30.05,4,2,10,0.00
2012-8-29,95.0,77.9,58.3,60.6,53.6,47.8,86,47,22,30.16,29.92,4,1,8,0.00
2012-8-30,96.8,75.4,56.1,56.4,49.7,37.5,81,47,14,30.06,29.95,6,1,8,0.00
2012-8-31,89.4,80.8,64.6,68.7,65.7,53.4,82,61,48,30.10,29.98,9,3,14,0.00
2012-9-1,88.9,76.2,72.3,71.1,69.2,67.5,88,79,52,30.02,29.80,4,2,5,0.06
2012-9-2,84.0,75.4,68.9,73.4,69.2,66.3,93,81,63,29.85,29.65,7,2,11,0.89
2012-9-3,77.9,72.7,-14.8,74.3,70.0,-16.7,94,91,86,29.88,29.82,4,0,4,0.78
2012-9-4,93.2,80.2,70.9,74.2,70.5,67.2,95,75,46,29.92,29.76,4,1,5,0.00
2012-9-5,90.7,73.4,62.6,71.7,66.1,59.9,93,80,49,29.99,29.76,10,1,15,0.41
2012-9-6,89.2,75.0,59.7,72.0,66.1,58.0,95,76,51,30.21,29.70,5,1,8,0.00
2012-9-7,93.4,78.5,64.0,71.3,66.5,61.4,94,69,42,29.91,29.67,7,2,11,0.43
2012-9-8,73.7,64.5,57.0,62.2,53.6,47.8,93,69,47,30.15,29.77,5,2,9,0.78
2012-9-9,80.8,66.4,49.8,55.3,52.2,47.1,92,63,37,30.40,30.17,7,2,10,0.00
2012-9-10,84.0,67.5,50.5,54.6,49.7,44.6,92,57,27,30.63,30.38,2,0,4,0.00
2012-9-11,86.5,70.1,49.4,53.1,49.7,45.8,91,53,26,30.78,30.34,5,2,9,0.00
2012-9-12,88.0,72.2,52.1,60.0,55.5,47.5,87,59,31,30.70,30.35,5,1,8,0.00
2012-9-13,88.0,74.6,62.8,62.8,58.3,54.1,87,60,33,31.25,30.27,4,1,7,0.00
2012-9-14,73.2,61.3,50.7,62.3,54.4,46.2,90,78,66,30.55,29.88,6,1,8,0.00
2012-9-15,80.4,64.7,46.6,53.2,48.0,42.0,92,59,27,30.30,29.87,2,1,4,0.00
2012-9-16,85.4,63.8,49.6,51.6,48.1,43.9,85,60,24,29.95,29.70,5,1,5,0.00
2012-9-17,73.0,66.1,56.5,62.2,59.4,49.1,91,80,67,29.75,29.45,7,2,8,0.00
2012-9-18,71.8,61.3,46.9,61.3,50.1,39.4,93,69,37,29.76,29.33,9,3,16,0.01
2012-9-19,74.1,58.6,37.6,45.7,38.4,34.1,92,52,25,30.02,29.78,5,2,9,0.00
2012-9-20,72.3,61.3,43.7,55.3,48.7,37.8,82,65,43,29.93,29.72,8,2,11,0.01
2012-9-21,71.8,63.2,49.3,57.4,52.6,46.6,92,70,44,29.90,29.67,11,2,14,0.00
2012-9-22,71.8,57.2,39.7,54.6,42.8,29.0,93,63,30,30.24,29.75,12,4,20,0.54
2012-9-23,68.9,53.9,35.2,43.4,37.4,32.0,91,57,32,30.43,30.25,6,2,10,0.00
2012-9-24,72.3,56.5,34.3,43.3,36.8,31.1,90,53,26,30.47,30.14,9,3,10,0.00
2012-9-25,64.4,57.8,48.0,58.8,52.0,37.0,88,81,65,30.20,30.02,6,4,9,0.04
2012-9-26,75.0,65.5,58.6,64.8,60.8,55.4,92,85,69,30.15,30.02,10,3,11,0.17
2012-9-27,77.3,66.7,58.4,64.9,60.8,-25.2,94,82,59,30.12,29.99,4,1,6,0.09
2012-9-28,69.6,61.2,56.1,60.0,56.6,53.5,94,85,71,30.08,29.99,2,0,2,0.00
2012-9-29,81.1,64.1,51.6,56.2,51.6,46.0,94,68,34,30.11,29.90,3,0,4,0.00
2012-9-30,79.7,63.4,45.1,53.9,46.7,41.1,93,58,29,29.97,29.84,3,0,8,0.00
2012-10-1,63.5,55.5,48.0,51.4,47.9,41.3,93,76,55,29.95,29.74,4,2,8,1.63
2012-10-2,74.8,64.1,53.4,66.9,59.4,51.4,95,85,70,29.89,29.74,3,0,4,0.02
2012-10-3,74.6,63.9,55.0,55.2,51.5,49.2,89,66,43,30.12,29.90,9,3,14,0.01
2012-10-4,80.9,66.9,50.5,58.6,53.4,47.8,91,65,39,30.26,30.05,9,3,13,0.00
2012-10-5,76.6,59.8,41.2,59.9,51.5,38.4,91,75,53,30.15,29.91,6,2,10,0.37
2012-10-6,60.8,48.0,34.0,38.8,34.9,31.1,93,63,36,30.31,30.02,5,2,11,0.26
2012-10-7,52.3,43.6,34.3,38.5,34.4,28.5,84,71,49,30.38,30.25,4,1,11,0.00
2012-10-8,63.1,44.9,29.3,37.7,32.4,26.6,91,66,32,30.53,30.27,6,1,8,0.00
2012-10-9,66.5,49.6,32.7,45.3,37.6,30.6,93,67,36,30.41,30.06,7,3,10,0.00
2012-10-10,59.9,47.5,33.8,41.5,33.3,25.1,85,60,36,30.41,30.08,13,4,103,0.00
2012-10-11,66.0,46.1,27.7,36.0,30.3,24.3,88,59,27,30.60,30.37,6,2,9,0.00
2012-10-12,66.5,50.3,37.4,41.1,35.3,30.8,85,59,31,30.55,30.42,4,1,7,0.00
2012-10-13,73.4,57.4,37.0,59.3,47.1,28.8,82,69,53,30.51,30.03,8,4,12,0.00
2012-10-14,70.9,65.2,60.8,60.5,56.6,53.2,82,74,67,30.03,29.67,17,10,23,0.04
2012-10-15,64.4,53.6,41.2,53.4,40.7,34.2,86,64,39,30.02,29.75,10,4,14,0.01
2012-10-16,70.1,52.8,34.1,45.0,38.8,31.8,92,63,33,30.19,29.89,7,3,10,0.00
2012-10-17,75.7,63.2,50.5,49.6,45.4,39.3,79,54,35,29.98,29.65,12,6,17,0.00
2012-10-18,63.8,54.1,44.8,49.8,38.9,30.1,88,59,29,30.10,29.91,14,6,20,0.09
2012-10-19,53.8,46.8,43.3,41.7,37.9,33.5,91,72,51,30.17,30.09,6,4,11,0.12
2012-10-20,52.7,46.4,38.8,46.4,41.8,36.1,91,84,72,30.48,30.18,6,3,9,0.08
2012-10-21,72.3,53.9,33.8,50.6,43.3,32.0,94,71,41,30.69,30.46,6,2,8,0.20
2012-10-22,78.1,64.2,50.7,54.3,49.3,43.8,78,60,43,30.61,30.32,10,4,12,0.00
2012-10-23,82.6,68.9,56.8,51.8,48.3,46.0,67,49,33,30.46,30.21,9,4,13,0.00
2012-10-24,81.8,69.2,59.3,56.8,50.6,47.6,66,53,35,30.46,30.18,9,4,13,0.00
2012-10-25,79.5,66.3,51.8,56.0,50.8,45.5,81,59,40,30.42,30.08,12,5,17,0.00
2012-10-26,63.5,47.2,41.3,51.5,43.0,39.5,93,86,63,30.54,30.17,8,2,8,0.61
2012-10-27,56.6,46.1,39.4,44.9,38.5,34.5,94,76,58,30.67,30.45,4,2,7,0.01
2012-10-28,53.4,44.0,36.7,38.1,33.5,29.8,82,67,54,30.53,30.39,6,3,9,0.00
2012-10-29,45.1,40.4,34.0,30.6,25.2,18.7,75,56,37,30.48,30.26,8,5,17,0.00
2012-10-30,40.3,38.5,35.4,36.7,34.9,31.9,89,87,85,29.99,29.89,12,6,18,0.25
2012-10-31,41.2,38.1,34.7,35.4,33.2,31.6,90,83,74,30.14,29.98,8,4,12,0.08
2012-11-1,57.4,44.3,30.4,32.5,25.0,19.4,79,50,23,30.19,30.11,10,4,14,0.00
2012-11-2,61.5,45.1,31.3,35.3,28.2,23.1,74,54,29,30.43,30.14,4,1,8,0.00
2012-11-3,42.8,35.8,27.3,35.3,31.4,24.2,90,84,70,30.55,30.32,5,1,8,0.12
2012-11-4,54.8,38.6,27.1,38.7,30.3,21.8,93,73,49,30.50,30.37,3,1,6,0.00
2012-11-5,54.5,37.3,22.8,32.6,26.3,20.0,90,67,40,30.66,30.47,4,1,6,0.00
2012-11-6,57.2,42.0,25.1,34.5,27.3,21.7,88,59,32,30.47,30.22,4,1,7,0.00
2012-11-7,62.0,45.3,33.6,34.4,30.0,24.1,81,58,29,30.50,30.21,4,2,8,0.00
2012-11-8,53.8,43.4,27.1,36.2,31.9,24.6,92,67,49,30.63,30.50,3,1,5,0.00
2012-11-9,62.4,51.8,30.2,40.7,36.9,27.6,90,59,41,29.91,29.70,8,5,11,0.00
2012-11-10,72.7,59.5,46.7,46.6,40.5,35.6,67,51,36,29.90,29.69,12,6,15,0.00
2012-11-11,65.6,55.9,46.2,44.4,37.3,30.4,65,51,27,29.91,29.67,17,8,19,0.00
2012-11-12,60.8,40.7,25.9,52.2,34.7,19.9,92,79,58,30.07,29.65,16,5,18,0.53
2012-11-13,49.3,33.2,21.5,29.1,22.1,17.8,88,66,38,30.19,30.06,5,1,8,0.00
2012-11-14,45.1,32.9,20.8,29.1,23.1,17.1,88,69,45,30.22,29.99,4,1,7,0.00
2012-11-15,53.9,38.0,22.4,33.2,26.8,19.7,90,67,41,30.07,29.88,2,0,4,0.00
2012-11-16,57.2,38.7,23.2,36.8,28.8,20.7,92,70,42,30.09,29.96,5,1,8,0.00
2012-11-17,63.1,45.1,29.3,36.4,29.1,25.5,88,57,29,30.17,29.95,4,2,6,0.00
2012-11-18,67.1,45.6,30.0,32.0,25.4,21.1,77,49,20,30.06,29.91,3,1,5,0.00
2012-11-19,65.1,48.8,33.8,35.5,29.9,21.6,64,50,30,30.07,29.85,3,0,4,0.00
2012-11-20,63.1,50.8,38.8,37.9,35.0,31.8,78,56,35,29.89,29.65,4,0,7,0.00
2012-11-21,70.3,53.0,37.7,40.0,35.3,32.6,83,55,29,29.86,29.68,5,0,6,0.00
2012-11-22,66.7,49.3,34.5,41.9,36.9,30.6,89,65,38,29.88,29.63,11,3,14,0.00
2012-11-23,53.6,41.6,29.8,45.4,27.9,18.2,81,59,42,29.78,29.62,13,8,21,0.01
2012-11-24,32.2,27.1,18.7,19.9,16.8,13.2,80,65,57,29.92,29.76,6,2,8,0.00
2012-11-25,48.4,36.6,20.3,25.2,22.4,15.1,81,58,39,29.77,29.53,9,4,12,0.00
2012-11-26,58.4,42.2,28.2,33.2,26.4,22.6,81,56,30,29.83,29.65,4,1,6,0.00
2012-11-27,46.4,32.9,22.1,27.5,21.8,16.5,84,65,43,30.00,29.83,4,1,9,0.00
2012-11-28,47.8,31.0,20.1,26.4,20.0,16.2,86,66,38,30.08,29.92,6,1,10,0.00
2012-11-29,50.7,34.5,21.4,29.0,23.0,17.3,86,65,39,30.06,29.78,8,3,11,0.00
2012-11-30,57.5,45.8,33.1,36.9,32.3,24.7,73,60,41,29.88,29.70,12,5,15,0.00
2012-12-1,64.9,52.8,44.6,44.7,40.8,35.8,73,64,47,29.91,29.76,9,4,13,0.00
2012-12-2,56.8,54.2,50.7,55.4,50.2,42.1,95,87,68,29.79,29.70,13,5,13,0.54
2012-12-3,68.5,58.6,55.4,58.8,55.5,54.0,95,90,69,29.81,29.69,11,4,14,0.01
2012-12-4,62.0,53.8,39.2,55.9,47.6,36.8,92,80,67,29.90,29.64,11,5,11,0.30
2012-12-5,53.2,38.3,28.0,43.2,32.3,23.5,95,80,54,30.14,29.92,4,1,4,0.00
2012-12-6,50.0,36.1,22.4,39.9,29.7,20.0,90,78,59,30.12,29.87,4,1,4,0.13
2012-12-7,51.8,47.2,42.6,50.5,45.5,39.9,96,94,90,29.88,29.73,4,1,4,0.35
2012-12-8,53.0,48.4,42.2,51.4,46.1,40.1,96,92,84,29.88,29.70,4,1,4,0.04
2012-12-9,57.4,49.9,41.9,55.4,47.8,39.4,94,92,90,29.89,29.32,8,4,13,0.34
2012-12-10,52.5,37.4,29.3,51.1,34.2,25.2,95,88,82,29.59,29.31,7,4,12,0.01
2012-12-11,34.7,28.5,21.9,26.1,22.7,18.4,87,79,63,29.88,29.59,7,3,11,0.00
2012-12-12,48.0,31.4,18.5,30.0,22.4,16.6,92,72,43,30.11,29.91,5,1,6,0.00
2012-12-13,49.8,34.5,19.7,30.6,23.7,16.8,90,67,43,30.12,29.86,7,2,8,0.00
2012-12-14,57.4,40.5,26.0,33.1,25.1,21.5,88,59,27,30.00,29.79,7,3,11,0.00
2012-12-15,51.4,45.1,37.2,45.5,36.6,24.0,83,72,53,29.79,29.34,9,5,13,0.07
2012-12-16,62.0,52.8,45.3,52.1,46.4,41.4,90,79,62,29.35,29.19,10,4,13,0.00
2012-12-17,47.3,43.1,39.4,43.6,40.7,37.0,94,91,85,29.40,29.23,6,0,15,0.27
2012-12-18,40.3,36.4,33.8,38.7,33.2,31.2,94,88,83,29.54,29.26,9,5,13,0.01
2012-12-19,48.2,40.4,32.3,36.7,33.4,28.9,89,76,62,29.71,29.43,9,2,9,0.00
2012-12-20,48.7,42.1,29.3,46.0,37.0,23.3,92,82,69,29.52,28.87,20,12,31,0.85
2012-12-21,28.9,24.6,23.2,22.9,19.2,17.4,84,79,77,29.77,29.24,20,11,21,0.00
2012-12-22,37.6,27.1,20.6,23.1,18.4,16.0,84,70,51,29.98,29.73,8,5,11,0.00
2012-12-23,52.9,35.8,22.6,30.8,24.3,16.5,78,64,42,29.74,29.54,6,2,8,0.00
2012-12-24,41.2,33.7,28.4,38.6,30.2,23.6,91,87,79,29.57,29.39,7,2,11,0.05
2012-12-25,32.3,30.6,29.3,28.1,25.8,23.6,87,82,75,29.81,29.58,7,2,11,0.00
2012-12-26,31.3,28.7,26.4,27.2,25.2,22.0,92,87,75,29.67,29.22,14,5,14,0.01
2012-12-27,35.8,28.1,23.0,24.0,21.2,19.0,85,76,61,29.82,29.59,4,2,6,0.09
2012-12-28,33.8,28.8,21.9,26.4,24.0,18.5,90,82,73,29.83,29.47,5,2,8,0.04
2012-12-29,30.7,27.1,22.4,26.1,23.1,16.8,92,85,78,29.87,29.41,10,4,16,0.00
2012-12-30,34.7,24.0,15.6,19.3,15.6,10.9,84,71,51,30.14,29.89,8,4,11,0.06
2012-12-31,34.9,28.5,18.3,28.3,24.3,15.1,92,84,68,29.99,29.70,9,4,13,0.02
2013-1-1,32.7,30.1,25.7,29.7,26.5,18.9,94,86,75,29.81,29.71,2,1,3,0.05